This is the latest recevied weather packets stored in our database for station/object N8HON. If no packets are shown the sender has not sent any weather packets the latest 10 day(s).
| Time | Temp. | Humidity | Pressure | Rain* | Wind** | Luminosity | Snow |
|---|---|---|---|---|---|---|---|
| 1777842739 | 15° C | 34% | 1013.1 hPa | 0 mm | - | 414 W/m² | - |
| 1777842435 | 15° C | 34% | 1012.9 hPa | 0 mm | - | 435 W/m² | - |
| 1777842133 | 15.56° C | 29% | 1012.9 hPa | 0 mm | - | 426 W/m² | - |
| 1777841828 | 15° C | 33% | 1012.8 hPa | 0 mm | - | 404 W/m² | - |
| 1777841524 | 15° C | 31% | 1013.1 hPa | 0 mm | - | 424 W/m² | - |
| 1777841221 | 15.56° C | 32% | 1013 hPa | 0 mm | - | 407 W/m² | - |
| 1777840918 | 15° C | 28% | 1013 hPa | 0 mm | - | 466 W/m² | - |
| 1777840615 | 15° C | 30% | 1012.9 hPa | 0 mm | - | 494 W/m² | - |
| 1777840313 | 15° C | 30% | 1013.1 hPa | 0 mm | - | 517 W/m² | - |
| 1777840010 | 15° C | 34% | 1013.3 hPa | 0 mm | - | 525 W/m² | - |
| 1777839708 | 15° C | 32% | 1013.4 hPa | 0 mm | - | 513 W/m² | - |
| 1777839406 | 15° C | 31% | 1013.3 hPa | 0 mm | - | 528 W/m² | - |
| 1777839103 | 15° C | 29% | 1013.3 hPa | 0 mm | - | 530 W/m² | - |
| 1777838799 | 14.44° C | 36% | 1013.3 hPa | 0 mm | - | 579 W/m² | - |
| 1777838495 | 14.44° C | 35% | 1013.6 hPa | 0 mm | - | 558 W/m² | - |
| 1777838193 | 14.44° C | 33% | 1013.9 hPa | 0 mm | - | 530 W/m² | - |
| 1777837889 | 15° C | 31% | 1013.8 hPa | 0 mm | - | 581 W/m² | - |
| 1777837587 | 14.44° C | 32% | 1013.8 hPa | 0 mm | - | 598 W/m² | - |
| 1777837282 | 15° C | 32% | 1013.7 hPa | 0 mm | - | 595 W/m² | - |
| 1777836979 | 15° C | 33% | 1014 hPa | 0 mm | - | 584 W/m² | - |
| 1777836674 | 15° C | 31% | 1014 hPa | 0 mm | - | 632 W/m² | - |
| 1777836370 | 15° C | 29% | 1014 hPa | 0 mm | - | 630 W/m² | - |
| 1777836066 | 13.89° C | 30% | 1013.9 hPa | 0 mm | - | 634 W/m² | - |
| 1777835763 | 14.44° C | 32% | 1014.1 hPa | 0 mm | - | 601 W/m² | - |
| 1777835460 | 14.44° C | 35% | 1014 hPa | 0 mm | - | 630 W/m² | - |
* Rain latest hour (hover to see other rain measurements)
** Current wind speed in m/s (hover to see current wind gust speed)